Tracking 19709 objects as of 20-Jun-2019
HD Live streaming from Space Station
objects crossing your sky now

SL-6 R/B(2)

Track SL-6 R/B(2) now!


NORAD ID: 19810
Int'l Code: 1989-014D
Perigee: 1,659.9 km
Apogee: 37,547.2 km
Inclination: 64.4 °
Period: 694.4 minutes
Semi major axis: 25974 km
RCS: 8.2817 m2 (large)
Launch date: February 15, 1989
Source: Commonwealth of Independent States (former USSR) (CIS)
Launch site: TYURATAM MISSILE AND SPACE COMPLEX (TTMTR)

Note: This is a ROCKET BODY
aabbcc
Your satellite tracking list
Your tracking list is empty




NASA's NSSDC Master Catalog

Two Line Element Set (TLE):
1 19810U 89014D   19170.72675968  .00000601  00000-0  00000+0 0  9995
2 19810  64.3910 325.8125 6908155 273.2460  16.5105  2.07386225229767
Source of the keplerian elements: AFSPC